When you browse on this site, cookies collect data to enhance your experience and personalize the content and advertising you see.
Visit our Privacy Policy to learn more. By continuing to use the site, you agree to this use of cookies and data.
  • In Lithuania
  • List of Countries
  • For 7 days
  • Water Temperature
  • Weather Map
  • Weather Widgets
  • user-avatar
    Login

    Hourly Weather Yuzefiny

    Today, 18 August, Sunday

    Time Temperature Precipitation Wind Pressure Humidity
    00:00 +15°C° 0 mm 1 mps 747 mmHg 78%
    01:00 +15°C° 0 mm 1 mps 747 mmHg 79%
    02:00 +15°C° 0 mm 1 mps 747 mmHg 77%
    03:00 +15°C° 0 mm 1 mps 747 mmHg 78%
    04:00 +14°C° 0 mm 1 mps 747 mmHg 78%
    05:00 +14°C° 0 mm 1 mps 747 mmHg 78%
    06:00 +16°C° 0 mm 1 mps 747 mmHg 77%
    07:00 +18°C° 0 mm 1 mps 747 mmHg 75%
    08:00 +18°C° 0 mm 2 mps 747 mmHg 73%
    09:00 +20°C° 0 mm 2 mps 747 mmHg 69%
    10:00 +21°C° 0 mm 2 mps 747 mmHg 66%
    11:00 +24°C° 0 mm 2 mps 747 mmHg 62%
    12:00 +25°C° 0 mm 2 mps 747 mmHg 60%
    13:00 +25°C° 0 mm 3 mps 747 mmHg 58%
    14:00 +26°C° 0 mm 3 mps 746 mmHg 55%
    15:00 +26°C° 0 mm 3 mps 746 mmHg 58%
    16:00 +26°C° 0 mm 3 mps 746 mmHg 60%
    17:00 +26°C° 0 mm 2 mps 746 mmHg 63%
    18:00 +24°C° 0 mm 2 mps 746 mmHg 67%
    19:00 +21°C° 0 mm 2 mps 747 mmHg 71%
    20:00 +20°C° 0 mm 2 mps 747 mmHg 75%
    21:00 +19°C° 0 mm 2 mps 747 mmHg 77%
    22:00 +19°C° 0 mm 3 mps 747 mmHg 79%
    23:00 +18°C° 0 mm 3 mps 746 mmHg 81%

    Tomorrow, 19 August, Monday

    Time Temperature Precipitation Wind Pressure Humidity
    00:00 +18°C° 0 mm 3 mps 747 mmHg 80%
    01:00 +19°C° 0 mm 3 mps 747 mmHg 78%
    02:00 +19°C° 0 mm 3 mps 747 mmHg 77%
    03:00 +19°C° 0 mm 3 mps 747 mmHg 79%
    04:00 +18°C° 0 mm 3 mps 747 mmHg 81%
    05:00 +18°C° 0 mm 3 mps 746 mmHg 84%
    06:00 +19°C° 0 mm 3 mps 747 mmHg 82%
    07:00 +20°C° 0 mm 3 mps 747 mmHg 81%
    08:00 +21°C° 0 mm 4 mps 747 mmHg 79%
    09:00 +23°C° 0 mm 4 mps 747 mmHg 76%
    10:00 +25°C° 0 mm 4 mps 748 mmHg 73%
    11:00 +27°C° 0 mm 3 mps 748 mmHg 70%
    12:00 +28°C° 0.5 mm 3 mps 748 mmHg 67%
    13:00 +29°C° 0.5 mm 3 mps 748 mmHg 64%
    14:00 +30°C° 0.5 mm 3 mps 748 mmHg 62%
    15:00 +30°C° 0.1 mm 3 mps 748 mmHg 63%
    16:00 +30°C° 0.1 mm 3 mps 748 mmHg 65%
    17:00 +30°C° 0.1 mm 3 mps 748 mmHg 67%
    18:00 +28°C° 0.1 mm 3 mps 748 mmHg 71%
    19:00 +26°C° 0.1 mm 3 mps 748 mmHg 75%
    20:00 +25°C° 0.1 mm 3 mps 748 mmHg 80%
    21:00 +24°C° 1.2 mm 3 mps 749 mmHg 83%
    22:00 +22°C° 1.2 mm 3 mps 749 mmHg 87%
    23:00 +21°C° 1.2 mm 3 mps 749 mmHg 91%

    Day after tomorrow, 20 August, Tuesday

    Time Temperature Precipitation Wind Pressure Humidity
    00:00 +20°C° 0.8 mm 2 mps 749 mmHg 93%
    01:00 +21°C° 0.8 mm 1 mps 750 mmHg 94%
    02:00 +20°C° 0.8 mm 1 mps 750 mmHg 96%
    03:00 +20°C° 0.1 mm 1 mps 750 mmHg 96%
    04:00 +19°C° 0.1 mm 2 mps 750 mmHg 97%
    05:00 +19°C° 0.1 mm 2 mps 750 mmHg 97%
    06:00 +19°C° 0 mm 2 mps 751 mmHg 95%
    07:00 +20°C° 0 mm 3 mps 751 mmHg 93%
    08:00 +21°C° 0 mm 3 mps 751 mmHg 92%
    09:00 +22°C° 0 mm 3 mps 752 mmHg 87%
    10:00 +24°C° 0 mm 3 mps 752 mmHg 82%
    11:00 +24°C° 0 mm 2 mps 752 mmHg 77%
    12:00 +25°C° 0 mm 2 mps 752 mmHg 73%
    13:00 +26°C° 0 mm 2 mps 752 mmHg 69%
    14:00 +27°C° 0 mm 2 mps 752 mmHg 65%
    15:00 +27°C° 0 mm 2 mps 752 mmHg 65%
    16:00 +27°C° 0 mm 2 mps 752 mmHg 65%
    17:00 +27°C° 0 mm 2 mps 752 mmHg 66%
    18:00 +25°C° 0 mm 2 mps 752 mmHg 72%
    19:00 +23°C° 0 mm 2 mps 752 mmHg 78%
    20:00 +21°C° 0 mm 2 mps 753 mmHg 85%
    21:00 +20°C° 0 mm 2 mps 753 mmHg 86%
    22:00 +20°C° 0 mm 2 mps 753 mmHg 88%
    23:00 +19°C° 0 mm 2 mps 753 mmHg 89%

    21 August, Wednesday

    Time Temperature Precipitation Wind Pressure Humidity
    00:00 +19°C° 0 mm 2 mps 753 mmHg 90%
    01:00 +18°C° 0 mm 2 mps 753 mmHg 91%
    02:00 +18°C° 0 mm 2 mps 753 mmHg 92%
    03:00 +18°C° 0 mm 2 mps 752 mmHg 93%
    04:00 +18°C° 0 mm 2 mps 752 mmHg 94%
    05:00 +17°C° 0 mm 3 mps 752 mmHg 94%
    06:00 +18°C° 0 mm 3 mps 752 mmHg 91%
    07:00 +20°C° 0 mm 3 mps 752 mmHg 88%
    08:00 +21°C° 0 mm 3 mps 752 mmHg 85%
    09:00 +22°C° 0 mm 3 mps 751 mmHg 81%
    10:00 +25°C° 0 mm 3 mps 751 mmHg 77%
    11:00 +27°C° 0 mm 3 mps 751 mmHg 73%
    12:00 +27°C° 0.3 mm 4 mps 751 mmHg 68%
    13:00 +28°C° 0.3 mm 4 mps 750 mmHg 63%
    14:00 +29°C° 0.3 mm 4 mps 750 mmHg 57%
    15:00 +29°C° 0 mm 3 mps 750 mmHg 60%
    16:00 +29°C° 0 mm 3 mps 750 mmHg 63%
    17:00 +29°C° 0 mm 3 mps 750 mmHg 66%
    18:00 +26°C° 0.2 mm 4 mps 750 mmHg 74%
    19:00 +21°C° 0.2 mm 5 mps 750 mmHg 82%
    20:00 +17°C° 0.2 mm 6 mps 751 mmHg 91%
    21:00 +16°C° 0.1 mm 6 mps 751 mmHg 90%
    22:00 +15°C° 0.1 mm 6 mps 752 mmHg 90%
    23:00 +15°C° 0.1 mm 6 mps 752 mmHg 89%

    22 August, Thursday

    Time Temperature Precipitation Wind Pressure Humidity
    00:00 +14°C° 0 mm 6 mps 752 mmHg 89%
    01:00 +14°C° 0 mm 5 mps 753 mmHg 88%
    02:00 +14°C° 0 mm 5 mps 753 mmHg 87%
    03:00 +14°C° 0 mm 5 mps 753 mmHg 88%
    04:00 +13°C° 0 mm 4 mps 753 mmHg 90%
    05:00 +13°C° 0 mm 4 mps 753 mmHg 91%
    06:00 +13°C° 0 mm 4 mps 754 mmHg 89%
    07:00 +14°C° 0 mm 4 mps 754 mmHg 87%
    08:00 +14°C° 0 mm 5 mps 754 mmHg 84%
    09:00 +16°C° 0 mm 5 mps 755 mmHg 79%
    10:00 +17°C° 0 mm 5 mps 755 mmHg 73%
    11:00 +20°C° 0 mm 5 mps 755 mmHg 68%
    12:00 +20°C° 0 mm 4 mps 755 mmHg 66%
    13:00 +21°C° 0 mm 4 mps 755 mmHg 64%
    14:00 +22°C° 0 mm 4 mps 755 mmHg 62%
    15:00 +22°C° 0 mm 4 mps 755 mmHg 64%
    16:00 +22°C° 0 mm 4 mps 755 mmHg 65%
    17:00 +21°C° 0 mm 3 mps 754 mmHg 66%
    18:00 +20°C° 0 mm 3 mps 755 mmHg 70%
    19:00 +18°C° 0 mm 3 mps 755 mmHg 74%
    20:00 +16°C° 0 mm 3 mps 755 mmHg 78%
    21:00 +15°C° 0 mm 2 mps 755 mmHg 79%
    22:00 +15°C° 0 mm 2 mps 755 mmHg 80%
    23:00 +14°C° 0 mm 2 mps 755 mmHg 81%

    23 August, Friday

    Time Temperature Precipitation Wind Pressure Humidity
    00:00 +14°C° 0 mm 2 mps 755 mmHg 82%
    01:00 +13°C° 0 mm 2 mps 755 mmHg 84%
    02:00 +13°C° 0 mm 2 mps 755 mmHg 85%
    03:00 +12°C° 0 mm 2 mps 755 mmHg 87%
    04:00 +12°C° 0 mm 2 mps 755 mmHg 89%
    05:00 +12°C° 0 mm 2 mps 755 mmHg 91%
    06:00 +13°C° 0 mm 2 mps 755 mmHg 87%
    07:00 +15°C° 0 mm 1 mps 755 mmHg 83%
    08:00 +16°C° 0 mm 1 mps 755 mmHg 79%
    09:00 +18°C° 0 mm 2 mps 755 mmHg 73%
    10:00 +19°C° 0 mm 2 mps 755 mmHg 68%
    11:00 +20°C° 0 mm 2 mps 755 mmHg 62%
    12:00 +21°C° 0 mm 2 mps 755 mmHg 58%
    13:00 +23°C° 0 mm 2 mps 755 mmHg 55%
    14:00 +23°C° 0 mm 2 mps 755 mmHg 51%
    15:00 +23°C° 0 mm 2 mps 755 mmHg 54%
    16:00 +23°C° 0 mm 2 mps 755 mmHg 56%
    17:00 +22°C° 0 mm 3 mps 755 mmHg 59%
    18:00 +20°C° 0 mm 3 mps 755 mmHg 65%
    19:00 +18°C° 0 mm 2 mps 755 mmHg 71%
    20:00 +16°C° 0 mm 2 mps 755 mmHg 76%
    21:00 +15°C° 0 mm 2 mps 755 mmHg 78%
    22:00 +15°C° 0 mm 2 mps 755 mmHg 80%
    23:00 +14°C° 0 mm 2 mps 756 mmHg 82%
    Show more